When you browse on this site, cookies collect data to enhance your experience and personalize the content and advertising you see.
Visit our Privacy Policy to learn more. By continuing to use the site, you agree to this use of cookies and data.

Hourly Weather Aathal

Today, 13 August, Thursday

Time Temperature Precipitation Wind Pressure Humidity
00:00 +19°C° 0.1 mm 2 mps 715 mmHg 87%
01:00 +21°C° 0 mm 1 mps 715 mmHg 83%
02:00 +21°C° 0 mm 1 mps 715 mmHg 82%
03:00 +21°C° 0 mm 1 mps 714 mmHg 80%
04:00 +21°C° 0 mm 1 mps 714 mmHg 78%
05:00 +21°C° 0 mm 1 mps 714 mmHg 80%
06:00 +21°C° 0 mm 1 mps 715 mmHg 81%
07:00 +19°C° 0 mm 0 mps 715 mmHg 83%
08:00 +20°C° 0.1 mm 0 mps 715 mmHg 78%
09:00 +21°C° 0.1 mm 0 mps 715 mmHg 74%
10:00 +23°C° 0.1 mm 0 mps 715 mmHg 70%
11:00 +26°C° 0.2 mm 1 mps 715 mmHg 64%
12:00 +27°C° 0.2 mm 1 mps 715 mmHg 58%
13:00 +29°C° 0.2 mm 1 mps 716 mmHg 52%
14:00 +28°C° 0.3 mm 1 mps 715 mmHg 55%
15:00 +28°C° 0.3 mm 1 mps 715 mmHg 58%
16:00 +27°C° 0.3 mm 1 mps 715 mmHg 62%
17:00 +26°C° 0.3 mm 1 mps 715 mmHg 68%
18:00 +23°C° 0.3 mm 0 mps 714 mmHg 73%
19:00 +22°C° 0.3 mm 0 mps 714 mmHg 79%
20:00 +22°C° 0.1 mm 1 mps 714 mmHg 81%
21:00 +21°C° 0.1 mm 1 mps 714 mmHg 83%
22:00 +20°C° 0.1 mm 1 mps 714 mmHg 85%
23:00 +19°C° 0.1 mm 1 mps 714 mmHg 87%

Tomorrow, 14 August, Friday

Time Temperature Precipitation Wind Pressure Humidity
00:00 +19°C° 0.1 mm 1 mps 714 mmHg 89%
01:00 +18°C° 0.1 mm 1 mps 714 mmHg 90%
02:00 +18°C° 0.3 mm 1 mps 714 mmHg 91%
03:00 +18°C° 0.3 mm 1 mps 714 mmHg 92%
04:00 +18°C° 0.3 mm 1 mps 714 mmHg 94%
05:00 +18°C° 0.2 mm 1 mps 714 mmHg 93%
06:00 +19°C° 0.2 mm 1 mps 714 mmHg 93%
07:00 +19°C° 0.2 mm 1 mps 714 mmHg 93%
08:00 +21°C° 0.2 mm 1 mps 715 mmHg 88%
09:00 +22°C° 0.2 mm 1 mps 715 mmHg 83%
10:00 +23°C° 0.2 mm 1 mps 715 mmHg 78%
11:00 +24°C° 0.4 mm 1 mps 715 mmHg 75%
12:00 +25°C° 0.4 mm 1 mps 715 mmHg 72%
13:00 +25°C° 0.4 mm 1 mps 715 mmHg 69%
14:00 +25°C° 0.3 mm 1 mps 715 mmHg 69%
15:00 +25°C° 0.3 mm 1 mps 714 mmHg 69%
16:00 +25°C° 0.3 mm 1 mps 714 mmHg 70%
17:00 +24°C° 0.1 mm 1 mps 714 mmHg 74%
18:00 +23°C° 0.1 mm 1 mps 714 mmHg 78%
19:00 +20°C° 0.1 mm 0 mps 714 mmHg 83%
20:00 +19°C° 0 mm 0 mps 714 mmHg 84%
21:00 +20°C° 0 mm 1 mps 714 mmHg 86%
22:00 +19°C° 0 mm 1 mps 715 mmHg 88%
23:00 +18°C° 0 mm 1 mps 714 mmHg 89%

Day after tomorrow, 15 August, Saturday

Time Temperature Precipitation Wind Pressure Humidity
00:00 +18°C° 0 mm 1 mps 714 mmHg 91%
01:00 +16°C° 0 mm 1 mps 714 mmHg 92%
02:00 +16°C° 0 mm 1 mps 714 mmHg 92%
03:00 +16°C° 0 mm 1 mps 714 mmHg 92%
04:00 +16°C° 0 mm 1 mps 714 mmHg 93%
05:00 +15°C° 0 mm 0 mps 714 mmHg 91%
06:00 +16°C° 0 mm 0 mps 714 mmHg 89%
07:00 +17°C° 0 mm 0 mps 714 mmHg 87%
08:00 +19°C° 0 mm 0 mps 714 mmHg 79%
09:00 +21°C° 0 mm 0 mps 715 mmHg 72%
10:00 +24°C° 0 mm 0 mps 715 mmHg 64%
11:00 +27°C° 0 mm 1 mps 715 mmHg 60%
12:00 +28°C° 0 mm 1 mps 714 mmHg 56%
13:00 +29°C° 0 mm 1 mps 714 mmHg 51%
14:00 +28°C° 0 mm 1 mps 714 mmHg 51%
15:00 +28°C° 0 mm 1 mps 714 mmHg 51%
16:00 +28°C° 0 mm 1 mps 713 mmHg 51%
17:00 +26°C° 0 mm 1 mps 713 mmHg 59%
18:00 +25°C° 0 mm 1 mps 713 mmHg 67%
19:00 +21°C° 0 mm 0 mps 713 mmHg 75%
20:00 +20°C° 0 mm 0 mps 713 mmHg 78%
21:00 +20°C° 0 mm 1 mps 713 mmHg 81%
22:00 +19°C° 0 mm 1 mps 713 mmHg 84%
23:00 +19°C° 0 mm 1 mps 713 mmHg 86%

16 August, Sunday

Time Temperature Precipitation Wind Pressure Humidity
00:00 +18°C° 0 mm 1 mps 713 mmHg 87%
01:00 +18°C° 0 mm 1 mps 712 mmHg 88%
02:00 +16°C° 0 mm 0 mps 712 mmHg 89%
03:00 +15°C° 0 mm 0 mps 712 mmHg 89%
04:00 +15°C° 0 mm 0 mps 712 mmHg 90%
05:00 +16°C° 0 mm 0 mps 712 mmHg 88%
06:00 +17°C° 0 mm 0 mps 712 mmHg 86%
07:00 +18°C° 0 mm 0 mps 712 mmHg 84%
08:00 +20°C° 0 mm 0 mps 713 mmHg 77%
09:00 +23°C° 0 mm 0 mps 713 mmHg 69%
10:00 +25°C° 0 mm 0 mps 713 mmHg 62%
11:00 +26°C° 0 mm 0 mps 713 mmHg 55%
12:00 +29°C° 0 mm 1 mps 713 mmHg 48%
13:00 +31°C° 0 mm 1 mps 713 mmHg 41%
14:00 +30°C° 0 mm 1 mps 713 mmHg 41%
15:00 +30°C° 0 mm 1 mps 713 mmHg 42%
16:00 +30°C° 0 mm 1 mps 713 mmHg 43%
17:00 +28°C° 0 mm 1 mps 712 mmHg 52%
18:00 +26°C° 0 mm 1 mps 712 mmHg 61%
19:00 +24°C° 0 mm 1 mps 712 mmHg 70%
20:00 +23°C° 0 mm 1 mps 712 mmHg 71%
21:00 +22°C° 0 mm 1 mps 712 mmHg 71%
22:00 +21°C° 0 mm 1 mps 712 mmHg 72%
23:00 +20°C° 0.1 mm 1 mps 712 mmHg 74%

17 August, Monday

Time Temperature Precipitation Wind Pressure Humidity
00:00 +20°C° 0.1 mm 1 mps 712 mmHg 75%
01:00 +20°C° 0.1 mm 1 mps 712 mmHg 77%
02:00 +19°C° 0.2 mm 1 mps 712 mmHg 81%
03:00 +19°C° 0.2 mm 1 mps 712 mmHg 86%
04:00 +19°C° 0.2 mm 1 mps 712 mmHg 91%
05:00 +19°C° 0.1 mm 1 mps 712 mmHg 90%
06:00 +19°C° 0.1 mm 1 mps 712 mmHg 90%
07:00 +18°C° 0.1 mm 0 mps 712 mmHg 90%
08:00 +18°C° 0.2 mm 0 mps 712 mmHg 90%
09:00 +20°C° 0.2 mm 1 mps 712 mmHg 90%
10:00 +21°C° 0.2 mm 1 mps 712 mmHg 90%
11:00 +20°C° 0.8 mm 1 mps 712 mmHg 91%
12:00 +20°C° 0.8 mm 1 mps 712 mmHg 92%
13:00 +20°C° 0.8 mm 1 mps 712 mmHg 93%
14:00 +20°C° 0.8 mm 1 mps 712 mmHg 91%
15:00 +21°C° 0.8 mm 1 mps 712 mmHg 89%
16:00 +21°C° 0.8 mm 1 mps 712 mmHg 87%
17:00 +21°C° 1.1 mm 1 mps 712 mmHg 88%
18:00 +20°C° 1.1 mm 1 mps 712 mmHg 89%
19:00 +19°C° 1.1 mm 1 mps 712 mmHg 90%
20:00 +19°C° 0.4 mm 1 mps 712 mmHg 91%
21:00 +18°C° 0.4 mm 1 mps 713 mmHg 91%
22:00 +16°C° 0.4 mm 1 mps 713 mmHg 91%
23:00 +16°C° 0 mm 1 mps 713 mmHg 91%

18 August, Tuesday

Time Temperature Precipitation Wind Pressure Humidity
00:00 +15°C° 0 mm 1 mps 712 mmHg 91%
01:00 +15°C° 0 mm 1 mps 712 mmHg 91%
02:00 +15°C° 0 mm 1 mps 712 mmHg 91%
03:00 +14°C° 0 mm 1 mps 712 mmHg 91%
04:00 +14°C° 0 mm 1 mps 712 mmHg 91%
05:00 +15°C° 0.2 mm 1 mps 712 mmHg 91%
06:00 +15°C° 0.2 mm 1 mps 712 mmHg 92%
07:00 +16°C° 0.2 mm 1 mps 712 mmHg 92%
08:00 +16°C° 0.8 mm 1 mps 712 mmHg 91%
09:00 +17°C° 0.8 mm 2 mps 712 mmHg 90%
10:00 +18°C° 0.8 mm 2 mps 712 mmHg 89%
11:00 +18°C° 0.7 mm 2 mps 712 mmHg 87%
12:00 +19°C° 0.7 mm 3 mps 712 mmHg 85%
13:00 +19°C° 0.7 mm 3 mps 712 mmHg 84%
14:00 +19°C° 0.8 mm 3 mps 712 mmHg 83%
15:00 +20°C° 0.8 mm 3 mps 712 mmHg 82%
16:00 +20°C° 0.8 mm 3 mps 712 mmHg 81%
17:00 +19°C° 0.7 mm 2 mps 713 mmHg 84%
18:00 +18°C° 0.7 mm 2 mps 713 mmHg 88%
19:00 +16°C° 0.7 mm 2 mps 713 mmHg 92%
20:00 +16°C° 0.4 mm 1 mps 713 mmHg 92%
21:00 +15°C° 0.4 mm 1 mps 713 mmHg 92%
22:00 +14°C° 0.4 mm 1 mps 714 mmHg 93%
23:00 +13°C° 0 mm 1 mps 713 mmHg 93%
Show more